Location: Crescent
(42.8242°N, 73.7329°W)
Time: 06:37:41
(UTC+00:00)

Explorer 7 - Pass Details

Date: 20 February 2026
Orbit: 430 x 541 km, 50.2° (Epoch: 9 March)

Event Time Altitude Azimuth Distance (km) Brightness Sun altitude
Rises 01:39:58 0° 295° (WNW) 2,560 11.3 -34.8°
Reaches altitude 10° 01:42:14 10° 285° (WNW) 1,697 10.1 -35.2°
Enters shadow 01:42:24 11° 284° (WNW) 1,637 10.0 -35.2°
Maximum altitude 01:45:44 33° 220° (SW) 867 - -35.8°
Drops below altitude 10° 01:49:19 10° 156° (SSE) 1,748 - -36.4°
Sets 01:51:42 0° 146° (SSE) 2,650 - -36.8°
